sat.trackr.live / text

‹ back to catalog

O3B MPOWER F5

NORAD 58346 · 2023-175A

PAYLOAD ACTIVE UNKNOWN

§ Identity

Operator
Country
O3B
Launch date
2023-11-12
Launch site
AFETR
Launch vehicle
Mass (kg)
RCS (m²)

Purposes: comms

External: N2YO · Heavens-Above · Gunter

§ Orbital elements

Epoch: 2026-09-19T10:57:59.221152Z

Period
287.93 min
Inclination
0.0608°
Eccentricity
0.0006280
Mean motion
5.00115668 rev/d
Perigee alt
8,056.8 km
Apogee alt
8,075.0 km
Semi-major
14,444.0 km
B*
0.0000e+0
RAAN
3.4065°
Arg perigee
191.2333°
Mean anomaly
165.3442°
Rev number
5,415

§ Raw data

O3B MPOWER F51 58346U 23175A   26262.45693543 -.00000027  00000+0  00000+0 0  99992 58346   0.0608   3.4065 0006280 191.2333 165.3442  5.00115668 54150

JSON: /api/v1/satellites/58346 · /tle

For live sub-satellite position, see the globe view (requires WebGL).

§ Visibility from observer

Set your observer location to see the next 7 days of passes ≥ 10°. The values pass through the URL so the page stays shareable.

No JS? Fill the form by hand. The geolocation button needs JavaScript.